Retour au catalogue

SENTINEL 3B

ActifScienceSSO
NORAD 43437·PAYLOAD·🇪🇺 EU

Lancé Apr 25, 2018 depuis Plesetsk Cosmodrome

Loading…

Prochains Passages (prochaines 24 heures)

TLE

FraisSource: Space-Track

Époque: Sep 14, 2026, 02:44 UTC

1 43437U 18039A   26257.11435526  .00000072  00000-0  47647-4 0  9992
2 43437  98.6282 323.3581 0001381  77.7303 282.4032 14.26737204436801

Suivez SENTINEL 3B en temps réel avec AllMySat

Download on the App Store